Regional Weather Roundup
Issued by NWS Northern Indiana

Home | Current Version | Previous Version | Text Only | Print | Product List | Glossary Off
Versions: 1 2 3 4 5 6 7 8 9 10 11 12 13 14 15 16 17 18 19 20 21 22 23 24 25 26 27 28 29 30 31 32 33 34 35 36 37 38 39 40 41 42 43 44 45 46 47 48 49 50

000
ASUS43 KIWX 302310
RWRIWX

KIWX WEATHER ROUNDUP
NATIONAL WEATHER SERVICE NORTHERN INDIANA
600 PM EST FRI JAN 30 2015

NOTE: "FAIR" INDICATES FEW OR NO CLOUDS BELOW 12,000 FEET WITH NO
SIGNIFICANT WEATHER AND/OR OBSTRUCTIONS TO VISIBILITY.

* THESE STATIONS ARE NOT UNDER NWS QUALITY CONTROL. THEY ALSO MAY NOT
  REPORT WEATHER SUCH AS PRECIPITATION OR FOG.

INZ001>027-310000-
NORTHERN INDIANA

CITY           SKY/WX    TMP DP  RH WIND       PRES   REMARKS
GARY*          CLEAR     27  12  54 NE5       30.45F WCI  21
VALPARAISO     CLEAR     26  13  57 CALM      30.44F
MICHIGAN CITY* CLEAR     27  10  50 CALM      30.45F
LAPORTE*       CLEAR     26  15  61 CALM      30.44S
KNOX*          CLEAR     27   1  33 CALM      30.44S
SOUTH BEND     CLOUDY    25  14  63 NW7       30.44F WCI  17
ELKHART*       MOCLDY    25  12  58 NW5       30.43F WCI  19
GOSHEN         CLOUDY    24  14  65 NW6       30.43F WCI  17
MONTICELLO*    CLEAR     27  17  65 CALM      30.45S
LOGANSPORT*    CLEAR     28  18  64 NW3       30.45F
ROCHESTER*     PTCLDY    28  18  64 NW3       30.44F
WARSAW*        CLOUDY    27  16  63 NW6       30.43F WCI  20
ANGOLA*        CLEAR     21  10  63 W5        30.41S WCI  15
FORT WAYNE     MOCLDY    24  13  62 NW7       30.45S WCI  16
HUNTINGTON*    CLOUDY    25  11  56 NW3       30.44S
PERU/GRISSOM   PTCLDY    27  16  63 NW3       30.43S
MARION*        PTCLDY    26  16  66 CALM      30.45S

$$
INZ028>050-310000-
CENTRAL INDIANA

CITY           SKY/WX    TMP DP  RH WIND       PRES   REMARKS
LAFAYETTE      CLEAR     27  17  66 CALM      30.46S
KOKOMO*        MOCLDY    28  16  59 NW3       30.44S
MUNCIE*        PTCLDY    25  16  68 N7        30.44S WCI  17
INDIANAPOLIS   PTCLDY    26  15  63 NW6       30.44F WCI  19

$$
MIZ043>046-050>051-056>058-064>065-071>073-077>080-310000-
SOUTHWEST LOWER MICHIGAN

CITY           SKY/WX    TMP DP  RH WIND       PRES   REMARKS
BATTLE CREEK   CLEAR     21   8  57 N3        30.40F
BENTON HARBOR  CLOUDY    23  15  71 W5        30.44F WCI  17
COLDWATER*     CLEAR     20   8  59 CALM      30.40F
HILLSDALE*     CLEAR     19   7  58 CALM      30.38F
HOLLAND        CLOUDY    24  13  62 VRB3      30.43F
GRAND RAPIDS   PTCLDY    21   9  59 W8        30.41F WCI  11
KALAMAZOO      CLEAR     22  11  62 W7        30.41F WCI  13
STURGIS*       PTCLDY    21  10  63 CALM      30.41F
THREE RIVERS*  CLOUDY    23  14  67 W7        30.42F WCI  15

$$
OHZ001>008-015>018-024>025-310000-
NORTHWEST OHIO

CITY           SKY/WX    TMP DP  RH WIND       PRES   REMARKS
WAUSEON*       FAIR      21  10  63 CALM      30.43S
DEFIANCE       CLEAR     24  11  57 W3        30.44F
FINDLAY        CLEAR     21   9  59 NW3       30.43S
TOLEDO EXPRESS CLEAR     20   7  57 CALM      30.44S
TOLEDO METCALF CLEAR     20   7  57 NW6       30.45S WCI  12
LIMA           PTCLDY    23  11  60 N5        30.43R WCI  17

$$
AND FOR LAKE MICHIGAN COASTAL AND OPEN LAKE BUOY OBSERVATIONS

STATION/POSITION TEMP    WIND        PRES    VSBY  WAVE
                 AIR SEA DIR/SP/G                  HT/PER
                 (F)     (DEG/KT/KT) (MB)    (MI)  (FT/S)
CALUMET HARBOR    25      80/  4/  5   N/A
MICHIGAN CITY     26      CALM  /  2   N/A
SAINT JOSEPH      25     250/  3/  5 1030.5F

$$
&&



USA.gov is the U.S. government's official web portal to all federal, state and local government web resources and services.